Location: Astronomy Club of Akron Observatory
(40.9700°N, 81.5606°W)
Time: 15:39:08
(UTC-04:00)

Cosmos 1441 Rocket - Visible Passes

Search period start: 19 April 2018 00:00
Search period end: 29 April 2018 00:00
Orbit: 497 x 543 km, 81.1° (Epoch: 19 April)

Date Brightness Start Highest point End Pass type
(mag) Time Alt. Az. Time Alt. Az. Time Alt. Az.
19 Apr 5.3 22:13:59 15° NE 22:13:59 15° NE 22:14:53 10° NNE visible
19 Apr 6.1 23:49:02 14° NW 23:49:02 14° NW 23:50:11 10° NNW visible
20 Apr 5.1 21:59:48 17° NE 21:59:48 17° NE 22:01:03 10° NE visible
20 Apr 5.8 23:34:51 18° NW 23:34:51 18° NW 23:36:43 10° NNW visible
21 Apr 4.9 21:45:32 18° ENE 21:45:32 18° ENE 21:47:13 10° NE visible
21 Apr 5.5 23:20:35 22° WNW 23:20:35 22° WNW 23:23:11 10° NNW visible
22 Apr 4.8 21:31:11 18° E 21:31:11 18° E 21:33:20 10° NE visible
22 Apr 5.1 23:06:14 25° W 23:06:28 25° WNW 23:09:38 10° NNW visible
23 Apr 4.8 21:16:44 16° E 21:17:04 16° E 21:19:24 10° NE visible
23 Apr 4.9 22:51:46 25° WSW 22:52:45 29° WNW 22:56:04 10° NNW visible
24 Apr 5.0 21:02:08 12° ESE 21:03:25 14° E 21:05:23 10° ENE visible
24 Apr 4.7 22:37:10 21° SW 22:39:01 34° WNW 22:42:29 10° N visible
25 Apr 5.1 20:48:18 10° ESE 20:49:46 12° E 20:51:15 10° ENE visible
25 Apr 4.4 22:22:23 14° SW 22:25:18 39° WNW 22:28:52 10° N visible
26 Apr 4.2 22:08:00 10° SSW 22:11:35 46° WNW 22:15:14 10° N visible
27 Apr 3.9 21:54:13 10° SSW 21:57:53 54° WNW 22:01:35 10° N visible
28 Apr 3.6 21:40:29 10° SSW 21:44:09 63° W 21:47:55 10° N visible
